Weather History for Springfield, OH

Change the Weather History Date:

Sunday, November 10, 2013

  Actual Average (KDAY) Record (KDAY)
Temperature  
Mean Temperature 38 °F 45 °F  
Max Temperature 47 °F 54 °F 71 °F (2002)
Min Temperature 30 °F 37 °F 18 °F (1991)
Degree Days  
Heating Degree Days 26 20  
Month to date heating degree days 179  
Since 1 July heating degree days 626  
Cooling Degree Days 0 0  
Month to date cooling degree days 0  
Year to date cooling degree days 891  
Moisture  
Dew Point 31 °F    
Average Humidity 68    
Maximum Humidity 92    
Minimum Humidity 50    
Precipitation  
Precipitation 0.00 in 0.10 in 2.05 in (1985)
Month to date precipitation 1.05  
Year to date precipitation 35.59  
Snow  
Snow 0.00 in 0.00 in 0.20 in (1960)
Month to date snowfall 0.1  
Since 1 July snowfall 0.5  
Since 1 September snowfall 0.5  
Snow Depth -    
Sea Level Pressure  
Sea Level Pressure 30.26 in    
Wind  
Wind Speed 13 mph (WSW)    
Max Wind Speed 21 mph    
Max Gust Speed 29 mph    
Visibility 7 miles    
Events Rain    
T = Trace of Precipitation, MM = Missing Value Source: NWS Daily Summary

Daily Weather History Graph

Daily Weather History Graph

Search for Another Location

Airport:

Trip Planner

Search our weather history database for the weather conditions in past years. The results will help you decide how hot, cold, wet, or windy it might be!

Date:

Astronomy

Nov. 10, 2013 Rise Set
Actual Time 7:14 AM EST 5:23 PM EST
Civil Twilight 6:46 AM EST 5:52 PM EST
Nautical Twilight 6:13 AM EST 6:24 PM EST
Astronomical Twilight 5:41 AM EST 6:56 PM EST
Moon 1:27 PM EST (11/10) No Moon Set
Length of Visible Light 11h 06m
Length of Day
10h 08m
First Quarter, 55% of the Moon is Illuminated
Nov 10
First Quarter
Nov 17
Full
Nov 25
Last Quarter
Dec 2
New
Dec 9
First Quarter

Hourly Weather History & Observations

Time (EST) Temp. Windchill Dew Point Humidity Pressure Visibility Wind Dir Wind Speed Gust Speed Precip Events Conditions
12:56 AM 47.8 °F - 38.8 °F 71% 30.08 in 8.0 mi WSW 15.0 mph - N/A   Clear
1:56 AM 46.9 °F - 37.9 °F 71% 30.09 in 8.0 mi West 15.0 mph - N/A   Clear
2:56 AM 45.9 °F 40.4 °F 36.9 °F 71% 30.10 in 8.0 mi West 11.5 mph - N/A   Clear
3:56 AM 43.9 °F 37.9 °F 36.9 °F 76% 30.10 in 8.0 mi WSW 11.5 mph - N/A   Clear
4:56 AM 43.9 °F 36.2 °F 36.9 °F 76% 30.12 in 8.0 mi West 17.3 mph - N/A   Clear
5:56 AM 41.9 °F 32.8 °F 32.9 °F 70% 30.14 in 8.0 mi West 20.7 mph 28.8 mph N/A   Clear
6:56 AM 39.9 °F 31.1 °F 30.0 °F 68% 30.18 in 7.0 mi WNW 17.3 mph 26.5 mph N/A   Clear
7:56 AM 37.9 °F 30.9 °F 28.0 °F 68% 30.23 in 6.0 mi West 10.4 mph - 0.00 in Rain Light Rain
8:56 AM 39.9 °F 31.1 °F 29.1 °F 65% 30.26 in 7.0 mi West 17.3 mph 20.7 mph 0.00 in   Clear
9:56 AM 43.0 °F 36.4 °F 29.1 °F 58% 30.28 in 7.0 mi WNW 12.7 mph 21.9 mph N/A   Clear
10:56 AM 45.0 °F 38.5 °F 30.0 °F 56% 30.29 in 7.0 mi NW 13.8 mph - N/A   Partly Cloudy
11:56 AM 45.9 °F 39.7 °F 30.0 °F 54% 30.30 in 7.0 mi WNW 13.8 mph 19.6 mph N/A   Partly Cloudy
12:56 PM 46.9 °F - 30.0 °F 52% 30.31 in 6.0 mi WNW 12.7 mph 20.7 mph N/A   Haze
1:56 PM 47.8 °F - 30.0 °F 50% 30.30 in 7.0 mi West 13.8 mph - N/A   Mostly Cloudy
2:56 PM 46.9 °F - 30.0 °F 52% 30.31 in 7.0 mi West 11.5 mph - N/A   Mostly Cloudy
3:56 PM 45.9 °F 41.7 °F 31.1 °F 56% 30.32 in 7.0 mi West 8.1 mph - N/A   Clear
4:56 PM 45.0 °F 40.6 °F 30.0 °F 56% 30.34 in 7.0 mi West 8.1 mph - N/A   Partly Cloudy
5:56 PM 38.8 °F 34.6 °F 29.1 °F 68% 30.34 in 8.0 mi SW 5.8 mph - N/A   Clear
6:56 PM 36.0 °F 32.1 °F 29.1 °F 76% 30.37 in 8.0 mi SSW 4.6 mph - N/A   Clear
7:56 PM 36.0 °F 31.1 °F 29.1 °F 76% 30.37 in 8.0 mi SSW 5.8 mph - N/A   Clear
8:56 PM 34.9 °F 32.0 °F 29.1 °F 79% 30.36 in 8.0 mi South 3.5 mph - N/A   Clear
9:56 PM 30.0 °F 25.2 °F 28.0 °F 92% 30.37 in 7.0 mi SSW 4.6 mph - N/A   Clear
10:56 PM 30.0 °F 25.2 °F 28.0 °F 92% 30.36 in 7.0 mi South 4.6 mph - N/A   Clear
11:56 PM 31.1 °F 25.4 °F 28.0 °F 88% 30.32 in 6.0 mi South 5.8 mph - N/A   Clear